User: anonymous   Login
Location: Unspecified
(0.0000°N, 0.0000°E)
Time: 13:47:24
(UTC+02:00)
Language:

Cosmos 1092 Rocket - Orbit

View from above orbital plane
View from above orbital plane
View from above satellite
View from above satellite

Ground track
Ground track

The orbit data is extracted from the following two-line orbital elements,

1 11327U 79030B   16183.17908265 -.00000043  00000-0 -59190-4 0  9997
2 11327  82.9484 196.4819 0029183  82.7852 349.0142 13.76970205870833
Epoch (UTC): 01 July 2016 04:17:52
Eccentricity: 0.0029183
inclination: 82.9484°
perigee height: 953 km
apogee height: 996 km
right ascension of ascending node: 196.4819°
argument of perigee: 82.7852°
revolutions per day: 13.76970205
mean anomaly at epoch: 349.0142°
orbit number at epoch: 87083

The dashed part of the orbit path shows where the satellite is in the earth's shadow,  

DLR